• In Uzbekistan
  • List of Countries
  • For 7 days
  • Water Temperature
  • Satellite Maps
  • Weather Map
  • Weather Widgets
  • user-avatar
    Login

    Hourly Weather Rawson

    Today, 21 August, Monday

    Time Temperature Precipitation Wind Pressure Humidity
    00:00 +9°C° 0 mm 8 mps 758 mmHg 40%
    01:00 +9°C° 0 mm 8 mps 757 mmHg 41%
    02:00 +9°C° 0 mm 8 mps 756 mmHg 41%
    03:00 +9°C° 0 mm 8 mps 756 mmHg 41%
    04:00 +9°C° 0 mm 8 mps 755 mmHg 40%
    05:00 +8°C° 0 mm 9 mps 754 mmHg 40%
    06:00 +8°C° 0 mm 9 mps 754 mmHg 39%
    07:00 +8°C° 0 mm 9 mps 753 mmHg 38%
    08:00 +8°C° 0 mm 9 mps 753 mmHg 37%
    09:00 +12°C° 0 mm 9 mps 752 mmHg 33%
    10:00 +14°C° 0 mm 10 mps 752 mmHg 29%
    11:00 +17°C° 0 mm 10 mps 752 mmHg 25%
    12:00 +19°C° 0 mm 10 mps 751 mmHg 22%
    13:00 +21°C° 0 mm 10 mps 750 mmHg 19%
    14:00 +23°C° 0 mm 10 mps 750 mmHg 16%
    15:00 +22°C° 0 mm 10 mps 749 mmHg 17%
    16:00 +22°C° 0 mm 10 mps 749 mmHg 19%
    17:00 +21°C° 0 mm 10 mps 748 mmHg 20%
    18:00 +19°C° 0 mm 11 mps 748 mmHg 21%
    19:00 +19°C° 0 mm 12 mps 747 mmHg 21%
    20:00 +18°C° 0 mm 13 mps 746 mmHg 21%
    21:00 +18°C° 0 mm 13 mps 746 mmHg 22%
    22:00 +18°C° 0 mm 14 mps 745 mmHg 23%
    23:00 +18°C° 0 mm 15 mps 744 mmHg 24%

    Tomorrow, 22 August, Tuesday

    Time Temperature Precipitation Wind Pressure Humidity
    00:00 +18°C° 0 mm 14 mps 744 mmHg 26%
    01:00 +17°C° 0 mm 14 mps 743 mmHg 29%
    02:00 +17°C° 0 mm 14 mps 742 mmHg 32%
    03:00 +17°C° 0 mm 14 mps 742 mmHg 31%
    04:00 +17°C° 0 mm 14 mps 741 mmHg 29%
    05:00 +17°C° 0 mm 13 mps 740 mmHg 27%
    06:00 +17°C° 0 mm 13 mps 740 mmHg 26%
    07:00 +17°C° 0 mm 12 mps 740 mmHg 24%
    08:00 +17°C° 0 mm 11 mps 739 mmHg 23%
    09:00 +18°C° 0 mm 11 mps 740 mmHg 25%
    10:00 +18°C° 0 mm 11 mps 740 mmHg 27%
    11:00 +19°C° 0 mm 12 mps 741 mmHg 29%
    12:00 +18°C° 0.1 mm 10 mps 741 mmHg 29%
    13:00 +18°C° 0.1 mm 9 mps 741 mmHg 29%
    14:00 +17°C° 0.1 mm 8 mps 741 mmHg 30%
    15:00 +16°C° 0 mm 9 mps 742 mmHg 29%
    16:00 +16°C° 0 mm 9 mps 743 mmHg 28%
    17:00 +15°C° 0 mm 9 mps 744 mmHg 27%
    18:00 +13°C° 0 mm 8 mps 745 mmHg 29%
    19:00 +12°C° 0 mm 7 mps 746 mmHg 31%
    20:00 +11°C° 0 mm 6 mps 747 mmHg 34%
    21:00 +10°C° 0 mm 6 mps 749 mmHg 36%
    22:00 +9°C° 0 mm 6 mps 750 mmHg 38%
    23:00 +8°C° 0 mm 6 mps 751 mmHg 39%

    Day after tomorrow, 23 August, Wednesday

    Time Temperature Precipitation Wind Pressure Humidity
    00:00 +8°C° 0 mm 6 mps 751 mmHg 41%
    01:00 +7°C° 0 mm 6 mps 752 mmHg 43%
    02:00 +6°C° 0 mm 7 mps 753 mmHg 44%
    03:00 +5°C° 0 mm 7 mps 753 mmHg 45%
    04:00 +5°C° 0 mm 6 mps 753 mmHg 45%
    05:00 +5°C° 0 mm 6 mps 754 mmHg 46%
    06:00 +5°C° 0 mm 6 mps 754 mmHg 45%
    07:00 +6°C° 0 mm 5 mps 755 mmHg 45%
    08:00 +6°C° 0 mm 5 mps 756 mmHg 45%
    09:00 +7°C° 0 mm 5 mps 756 mmHg 40%
    10:00 +9°C° 0 mm 6 mps 756 mmHg 34%
    11:00 +11°C° 0 mm 6 mps 756 mmHg 29%
    12:00 +11°C° 0 mm 6 mps 755 mmHg 26%
    13:00 +12°C° 0 mm 7 mps 755 mmHg 23%
    14:00 +14°C° 0 mm 7 mps 754 mmHg 21%
    15:00 +13°C° 0 mm 8 mps 754 mmHg 23%
    16:00 +13°C° 0 mm 8 mps 753 mmHg 25%
    17:00 +13°C° 0 mm 8 mps 753 mmHg 28%
    18:00 +12°C° 0 mm 9 mps 753 mmHg 30%
    19:00 +12°C° 0 mm 9 mps 753 mmHg 32%
    20:00 +11°C° 0 mm 9 mps 753 mmHg 34%
    21:00 +11°C° 0 mm 11 mps 752 mmHg 35%
    22:00 +10°C° 0 mm 12 mps 752 mmHg 35%
    23:00 +10°C° 0 mm 14 mps 751 mmHg 36%

    24 August, Thursday

    Time Temperature Precipitation Wind Pressure Humidity
    00:00 +9°C° 0 mm 13 mps 751 mmHg 35%
    01:00 +9°C° 0 mm 13 mps 751 mmHg 35%
    02:00 +9°C° 0 mm 12 mps 751 mmHg 34%
    03:00 +9°C° 0 mm 12 mps 751 mmHg 35%
    04:00 +9°C° 0 mm 12 mps 751 mmHg 35%
    05:00 +9°C° 0 mm 12 mps 750 mmHg 36%
    06:00 +9°C° 0 mm 11 mps 751 mmHg 38%
    07:00 +9°C° 0 mm 11 mps 751 mmHg 39%
    08:00 +9°C° 0 mm 10 mps 751 mmHg 41%
    09:00 +11°C° 0 mm 10 mps 751 mmHg 35%
    10:00 +12°C° 0 mm 10 mps 752 mmHg 30%
    11:00 +13°C° 0 mm 10 mps 752 mmHg 24%
    12:00 +13°C° 0 mm 9 mps 752 mmHg 23%
    13:00 +15°C° 0 mm 8 mps 752 mmHg 21%
    14:00 +15°C° 0 mm 7 mps 752 mmHg 20%
    15:00 +15°C° 0 mm 7 mps 752 mmHg 22%
    16:00 +14°C° 0 mm 7 mps 753 mmHg 23%
    17:00 +14°C° 0 mm 6 mps 753 mmHg 24%
    18:00 +13°C° 0 mm 6 mps 754 mmHg 27%
    19:00 +11°C° 0 mm 6 mps 755 mmHg 30%
    20:00 +10°C° 0 mm 6 mps 756 mmHg 32%
    21:00 +9°C° 0 mm 6 mps 756 mmHg 33%
    22:00 +8°C° 0 mm 6 mps 756 mmHg 34%
    23:00 +8°C° 0 mm 7 mps 757 mmHg 34%

    25 August, Friday

    Time Temperature Precipitation Wind Pressure Humidity
    00:00 +7°C° 0 mm 6 mps 757 mmHg 36%
    01:00 +7°C° 0 mm 6 mps 757 mmHg 38%
    02:00 +6°C° 0 mm 5 mps 758 mmHg 40%
    03:00 +6°C° 0 mm 5 mps 758 mmHg 42%
    04:00 +5°C° 0 mm 6 mps 758 mmHg 44%
    05:00 +4°C° 0 mm 6 mps 758 mmHg 46%
    06:00 +5°C° 0 mm 6 mps 758 mmHg 46%
    07:00 +5°C° 0 mm 6 mps 759 mmHg 47%
    08:00 +5°C° 0 mm 6 mps 759 mmHg 47%
    09:00 +8°C° 0 mm 7 mps 758 mmHg 40%
    10:00 +10°C° 0 mm 7 mps 758 mmHg 34%
    11:00 +12°C° 0 mm 7 mps 758 mmHg 27%
    12:00 +14°C° 0 mm 7 mps 757 mmHg 26%
    13:00 +15°C° 0 mm 7 mps 757 mmHg 25%
    14:00 +16°C° 0 mm 8 mps 756 mmHg 23%
    15:00 +16°C° 0 mm 8 mps 756 mmHg 25%
    16:00 +16°C° 0 mm 8 mps 755 mmHg 27%
    17:00 +16°C° 0 mm 8 mps 755 mmHg 29%
    18:00 +15°C° 0 mm 8 mps 755 mmHg 31%
    19:00 +13°C° 0 mm 8 mps 755 mmHg 34%
    20:00 +12°C° 0 mm 8 mps 755 mmHg 37%
    21:00 +12°C° 0 mm 9 mps 755 mmHg 38%
    22:00 +12°C° 0 mm 9 mps 755 mmHg 39%
    23:00 +11°C° 0 mm 10 mps 755 mmHg 40%

    26 August, Saturday

    Time Temperature Precipitation Wind Pressure Humidity
    00:00 +11°C° 0 mm 10 mps 755 mmHg 41%
    01:00 +11°C° 0 mm 10 mps 755 mmHg 43%
    02:00 +11°C° 0 mm 10 mps 755 mmHg 44%
    03:00 +10°C° 0 mm 9 mps 755 mmHg 46%
    04:00 +10°C° 0 mm 9 mps 755 mmHg 48%
    05:00 +9°C° 0 mm 8 mps 755 mmHg 51%
    06:00 +9°C° 0 mm 8 mps 756 mmHg 51%
    07:00 +9°C° 0 mm 8 mps 756 mmHg 51%
    08:00 +9°C° 0 mm 7 mps 757 mmHg 52%
    09:00 +11°C° 0 mm 7 mps 757 mmHg 46%
    10:00 +12°C° 0 mm 7 mps 757 mmHg 39%
    11:00 +15°C° 0 mm 7 mps 757 mmHg 33%
    12:00 +16°C° 0 mm 6 mps 757 mmHg 31%
    13:00 +16°C° 0 mm 5 mps 756 mmHg 29%
    14:00 +17°C° 0 mm 5 mps 756 mmHg 26%
    15:00 +18°C° 0 mm 4 mps 756 mmHg 27%
    16:00 +17°C° 0 mm 3 mps 757 mmHg 27%
    17:00 +17°C° 0 mm 2 mps 757 mmHg 28%
    18:00 +16°C° 0 mm 2 mps 757 mmHg 31%
    19:00 +16°C° 0 mm 3 mps 758 mmHg 34%
    20:00 +14°C° 0 mm 3 mps 758 mmHg 37%
    21:00 +13°C° 0 mm 3 mps 758 mmHg 40%
    22:00 +13°C° 0 mm 3 mps 759 mmHg 43%
    23:00 +13°C° 0 mm 3 mps 759 mmHg 46%
    Show more